| time (UTC) | temp F | wind direction | speed MPH | gust MPH | rain 1hr in | rain 24hr in | rain mn in | humidity % | barometer mb |
| 20260506201507 | 69 | 160 | 1.0 | 10.0 | 0.00 | 0.00 | 0.00 | 70 | 1020.1 |
| 20260506200112 | 69 | 242 | 3.0 | 8.0 | 0.00 | 0.00 | 0.00 | 71 | 1020.2 |
| 20260506194619 | 68 | 136 | 0.0 | 8.0 | 0.00 | 0.00 | 0.00 | 74 | 1020.4 |
| 20260506193058 | 68 | 206 | 2.0 | 9.0 | 0.00 | 0.00 | 0.00 | 71 | 1020.5 |
| 20260506191558 | 68 | 176 | 2.0 | 6.0 | 0.00 | 0.00 | 0.00 | 72 | 1020.7 |
| 20260506190057 | 68 | 191 | 0.0 | 7.0 | 0.00 | 0.00 | 0.00 | 73 | 1020.8 |
| 20260506184604 | 68 | 120 | 0.0 | 5.0 | 0.00 | 0.00 | 0.00 | 73 | 1020.8 |
| 20260506183103 | 68 | 192 | 0.0 | 0.0 | 0.00 | 0.00 | 0.00 | 73 | 1020.9 |
| 20260506181557 | 68 | 193 | 0.0 | 0.0 | 0.00 | 0.00 | 0.00 | 72 | 1020.8 |
| 20260506180045 | 66 | 180 | 0.0 | 0.0 | 0.00 | 0.00 | 0.00 | 75 | 1020.8 |
| 20260506174542 | 65 | 169 | 0.0 | 0.0 | 0.00 | 0.00 | 0.00 | 77 | 1020.8 |
| 20260506173037 | 63 | 146 | 0.0 | 0.0 | 0.00 | 0.00 | 0.00 | 80 | 1020.9 |
| 20260506171542 | 62 | 296 | 0.0 | 0.0 | 0.00 | 0.00 | 0.00 | 81 | 1020.9 |
| 20260506170035 | 61 | 360 | 0.0 | 0.0 | 0.00 | 0.00 | 0.00 | 82 | 1021.0 |
| 20260506164527 | 60 | 347 | 0.0 | 0.0 | 0.00 | 0.00 | 0.00 | 84 | 1021.0 |
| 20260506163023 | 58 | 36 | 0.0 | 0.0 | 0.00 | 0.00 | 0.00 | 85 | 1021.1 |
| 20260506161523 | 56 | 36 | 0.0 | 0.0 | 0.00 | 0.00 | 0.00 | 85 | 1021.1 |
| 20260506160027 | 54 | 36 | 0.0 | 0.0 | 0.00 | 0.00 | 0.00 | 85 | 1021.2 |
| 20260506154510 | 53 | 36 | 0.0 | 0.0 | 0.00 | 0.00 | 0.00 | 86 | 1021.1 |
| 20260506153008 | 52 | 36 | 0.0 | 0.0 | 0.00 | 0.00 | 0.00 | 87 | 1021.0 |
| 20260506151509 | 52 | 327 | 0.0 | 0.0 | 0.00 | 0.00 | 0.00 | 89 | 1020.9 |
| 20260506150017 | 52 | 294 | 0.0 | 0.0 | 0.00 | 0.00 | 0.00 | 89 | 1020.9 |
| 20260506144505 | 52 | 71 | 0.0 | 0.0 | 0.00 | 0.00 | 0.00 | 90 | 1021.0 |
| 20260506143003 | 52 | 290 | 0.0 | 0.0 | 0.00 | 0.00 | 0.00 | 90 | 1020.8 |
| 20260506141558 | 51 | 292 | 0.0 | 0.0 | 0.00 | 0.00 | 0.00 | 90 | 1020.7 |
| 20260506140105 | 51 | 201 | 0.0 | 0.0 | 0.00 | 0.00 | 0.00 | 90 | 1020.6 |
| 20260506134553 | 51 | 200 | 0.0 | 0.0 | 0.00 | 0.00 | 0.00 | 90 | 1020.5 |
| 20260506133051 | 51 | 200 | 0.0 | 0.0 | 0.00 | 0.00 | 0.00 | 90 | 1020.4 |
| 20260506131545 | 51 | 200 | 0.0 | 0.0 | 0.00 | 0.00 | 0.00 | 89 | 1020.4 |
| 20260506130049 | 51 | 200 | 0.0 | 0.0 | 0.00 | 0.00 | 0.00 | 89 | 1020.3 |
| 20260506124539 | 50 | 200 | 0.0 | 0.0 | 0.00 | 0.00 | 0.00 | 89 | 1020.1 |
| 20260506123039 | 50 | 200 | 0.0 | 0.0 | 0.00 | 0.00 | 0.00 | 89 | 1020.1 |
| 20260506121540 | 50 | 200 | 0.0 | 0.0 | 0.00 | 0.00 | 0.00 | 89 | 1020.0 |
| 20260506120041 | 50 | 200 | 0.0 | 0.0 | 0.00 | 0.00 | 0.00 | 89 | 1020.0 |
| 20260506114541 | 50 | 200 | 0.0 | 0.0 | 0.00 | 0.00 | 0.00 | 89 | 1019.9 |
| 20260506113034 | 50 | 200 | 0.0 | 0.0 | 0.00 | 0.00 | 0.00 | 89 | 1019.8 |
| 20260506111535 | 50 | 200 | 0.0 | 0.0 | 0.00 | 0.00 | 0.00 | 89 | 1019.7 |
| 20260506110036 | 50 | 200 | 0.0 | 0.0 | 0.00 | 0.00 | 0.00 | 89 | 1019.6 |
| 20260506104605 | 50 | 200 | 0.0 | 0.0 | 0.00 | 0.00 | 0.00 | 89 | 1019.6 |
| 20260506103049 | 50 | 200 | 0.0 | 0.0 | 0.00 | 0.00 | 0.00 | 89 | 1019.5 |
| 20260506101559 | 50 | 200 | 0.0 | 0.0 | 0.00 | 0.00 | 0.00 | 89 | 1019.3 |
| 20260506094519 | 50 | 200 | 0.0 | 0.0 | 0.00 | 0.02 | 0.00 | 88 | 1019.1 |
| 20260506093015 | 50 | 200 | 0.0 | 0.0 | 0.00 | 0.02 | 0.00 | 88 | 1019.1 |
| 20260506091514 | 50 | 200 | 0.0 | 0.0 | 0.00 | 0.02 | 0.00 | 88 | 1019.3 |
| 20260506090008 | 50 | 200 | 0.0 | 0.0 | 0.00 | 0.02 | 0.00 | 88 | 1019.1 |
| 20260506084505 | 50 | 200 | 0.0 | 0.0 | 0.00 | 0.06 | 0.00 | 88 | 1019.3 |
| 20260506083100 | 49 | 200 | 0.0 | 0.0 | 0.00 | 0.06 | 0.00 | 88 | 1019.4 |
| 20260506081558 | 49 | 200 | 0.0 | 0.0 | 0.00 | 0.06 | 0.00 | 88 | 1019.2 |
| 20260506073058 | 49 | 226 | 0.0 | 0.0 | 0.00 | 0.06 | 0.00 | 88 | 1018.8 |
| 20260506071607 | 49 | 226 | 0.0 | 0.0 | 0.00 | 0.06 | 0.00 | 87 | 1018.8 |
| 20260506061546 | 50 | 226 | 0.0 | 0.0 | 0.00 | 0.13 | 0.06 | 87 | 1018.3 |
| 20260506044538 | 50 | 182 | 0.0 | 4.0 | 0.00 | 0.13 | 0.06 | 87 | 1017.7 |
| 20260506043035 | 51 | 199 | 1.0 | 3.0 | 0.00 | 0.13 | 0.06 | 87 | 1017.5 |
| 20260506041544 | 52 | 209 | 0.0 | 4.0 | 0.00 | 0.13 | 0.06 | 87 | 1017.3 |
| 20260506040031 | 53 | 247 | 0.0 | 4.0 | 0.00 | 0.13 | 0.06 | 86 | 1017.1 |
| 20260506034529 | 54 | 163 | 0.0 | 1.0 | 0.00 | 0.13 | 0.06 | 86 | 1017.1 |
| 20260506033030 | 55 | 201 | 0.0 | 3.0 | 0.00 | 0.13 | 0.06 | 84 | 1016.7 |
| 20260506031526 | 57 | 214 | 0.0 | 1.0 | 0.00 | 0.13 | 0.06 | 82 | 1016.4 |
| 20260506030025 | 58 | 148 | 0.0 | 2.0 | 0.00 | 0.13 | 0.06 | 79 | 1016.1 |
| 20260506024521 | 58 | 161 | 0.0 | 0.0 | 0.00 | 0.17 | 0.06 | 79 | 1016.1 |
| 20260506023022 | 58 | 319 | 0.0 | 8.0 | 0.00 | 0.17 | 0.06 | 77 | 1015.8 |
| 20260506021521 | 58 | 258 | 0.0 | 4.0 | 0.00 | 0.17 | 0.06 | 77 | 1015.9 |
| 20260506020023 | 58 | 248 | 0.0 | 4.0 | 0.00 | 0.17 | 0.06 | 78 | 1015.7 |
| 20260506014520 | 58 | 28 | 0.0 | 5.0 | 0.00 | 0.21 | 0.06 | 77 | 1015.6 |
| 20260506013026 | 59 | 173 | 1.0 | 6.0 | 0.00 | 0.21 | 0.06 | 76 | 1015.7 |
| 20260506011518 | 60 | 71 | 0.0 | 3.0 | 0.00 | 0.21 | 0.06 | 78 | 1015.5 |
| 20260506010024 | 60 | 331 | 0.0 | 5.0 | 0.00 | 0.21 | 0.06 | 77 | 1015.5 |
| 20260506004528 | 60 | 240 | 0.0 | 7.0 | 0.00 | 0.24 | 0.06 | 77 | 1015.6 |
| 20260506003018 | 61 | 185 | 0.0 | 3.0 | 0.00 | 0.24 | 0.06 | 76 | 1015.5 |
| 20260506001517 | 61 | 5 | 1.0 | 6.0 | 0.00 | 0.24 | 0.06 | 76 | 1015.4 |
| 20260506000020 | 61 | 202 | 1.0 | 6.0 | 0.00 | 0.24 | 0.06 | 75 | 1015.3 |
| 20260505234519 | 61 | 165 | 1.0 | 7.0 | 0.00 | 0.27 | 0.06 | 75 | 1015.3 |
| 20260505233016 | 62 | 202 | 0.0 | 9.0 | 0.00 | 0.27 | 0.06 | 74 | 1015.3 |
| 20260505231517 | 63 | 170 | 3.0 | 9.0 | 0.00 | 0.27 | 0.06 | 72 | 1015.4 |
| 20260505230016 | 63 | 355 | 1.0 | 8.0 | 0.00 | 0.27 | 0.06 | 74 | 1015.3 |
| 20260505224517 | 64 | 155 | 0.0 | 6.0 | 0.00 | 0.31 | 0.06 | 72 | 1015.3 |
| 20260505223013 | 64 | 289 | 1.0 | 6.0 | 0.00 | 0.31 | 0.06 | 73 | 1015.3 |
| 20260505221513 | 65 | 180 | 0.0 | 4.0 | 0.00 | 0.31 | 0.06 | 71 | 1015.4 |
| 20260505220024 | 65 | 262 | 0.0 | 9.0 | 0.00 | 0.31 | 0.06 | 72 | 1015.6 |
| 20260505214513 | 63 | 319 | 2.0 | 5.0 | 0.00 | 0.31 | 0.06 | 75 | 1015.6 |
| 20260505213005 | 63 | 234 | 0.0 | 4.0 | 0.00 | 0.31 | 0.06 | 77 | 1015.8 |
| 20260505211504 | 62 | 202 | 1.0 | 5.0 | 0.00 | 0.31 | 0.06 | 76 | 1015.9 |
| 20260505210006 | 62 | 178 | 0.0 | 5.0 | 0.00 | 0.31 | 0.06 | 77 | 1015.9 |
| 20260505204503 | 61 | 186 | 0.0 | 5.0 | 0.00 | 0.31 | 0.06 | 78 | 1016.0 |
| 20260505203002 | 61 | 178 | 0.0 | 4.0 | 0.00 | 0.31 | 0.06 | 76 | 1016.1 |